Location: Gro�wechsungen
(51.4926°N, 10.6901°E)
Time: 12:41:07
(UTC+00:00)

Cosmos 2082 Rocket - Pass Details

Date: 23 January 2021
Orbit: 832 x 854 km, 71.0° (Epoch: 04 March)

Event Time Altitude Azimuth Distance (km) Brightness Sun altitude
Rises 17:04:08 0° 330° (NNW) 3,438 5.6 -11.2°
Reaches altitude 10° 17:07:09 10° 345° (NNW) 2,499 4.7 -11.6°
Maximum altitude 17:11:38 23° 36° (NE) 1,754 3.4 -12.3°
Enters shadow 17:14:09 17° 71° (ENE) 2,015 3.5 -12.7°
